Dewpoint
47 53 52 52 51 48 51 52 52 54 56 55 53 50 50 51 51 52 52 57 59 60 61 63 64 65 67 68 66 66 67 68 70 69 69 68 69 70 70 71 70 70 69 71
43 41 52 54 52 50 49 52 52 57 57 56 54 49 53 54 50 51 51 54 58 59 60 62 63 65 67 67 67 67 68 69 69 69 69 70 71 70 72 70 72 73 72 71
43 42 44 54 53 48 49 51 54 55 59 59 57 53 52 53 53 51 51 54 56 58 59 61 63 65 65 66 67 68 70 70 70 69 70 71 71 71 70 70 71 71 72 72
46 45 44 52 51 49 51 52 54 56 53 49 55 46 52 52 52 52 51 53 55 56 59 60 62 64 65 66 66 68 69 69 69 69 70 69 68 68 70 69 70 70 71 73
42 41 45 49 49 51 50 50 55 53 53 51 52 47 48 52 51 50 52 51 55 56 58 60 62 64 64 65 66 68 68 68 68 69 70 70 69 70 70 68 66 67 68 72
35 35 32 36 37 47 38 50 52 53 51 46 48 46 44 48 49 50 53 51 56 57 58 60 62 64 64 65 67 70 70 71 71 71 71 70 69 69 68 68 68 68 70 70
24 24 25 32 32 32 35 26 23 25 41 40 47 47 46 48 51 52 55 51 54 57 57 59 61 62 63 65 67 71 71 69 69 68 69 69 69 69 68 68 65 64 66 67
16 15 19 28 31 30 32 29 23 21 25 29 47 44 46 52 52 55 59 62 59 61 58 58 59 61 63 65 70 69 66 68 67 67 66 66 66 65 65 65 66 65 64 66
13 13 15 18 18 32 32 32 31 28 34 26 43 49 53 56 57 56 57 63 64 65 66 67 68 68 66 66 65 66 66 66 66 66 66 64 62 61 60 58 59 59 59 57
13 10 12 13 23 29 26 29 29 27 24 22 31 47 47 52 54 59 60 61 61 63 63 65 66 66 66 64 63 63 64 62 62 62 61 60 60 60 61 59 57 57 57 57
12 11 6 13 14 16 18 20 28 25 26 23 28 44 57 58 59 57 58 59 59 59 58 58 60 61 62 61 60 60 60 61 60 61 62 61 61 61 61 60 58 58 57 57
18 8 5 7 12 17 17 16 21 21 17 25 29 48 60 59 59 58 59 59 58 57 57 58 58 59 59 59 59 59 60 60 61 62 62 61 61 61 61 60 59 58 56 56
19 8 6 6 7 16 17 16 22 19 21 17 24 50 59 58 58 59 58 59 58 57 57 57 56 57 58 59 59 59 59 59 59 59 59 59 58 59 55 55 56 56 56 55
30 13 8 6 8 19 22 22 21 19 17 24 46 53 57 55 56 57 57 57 57 56 56 56 56 56 57 58 58 58 57 57 58 58 59 58 57 55 55 55 55 55 56 55
14 10 24 26 24 30 31 31 26 32 32 23 52 52 54 56 55 55 56 56 54 55 55 55 55 55 55 53 54 55 55 55 57 59 55 53 54 54 54 54 55 55 54 55
30 18 25 16 29 31 32 34 34 32 48 52 53 53 57 56 56 55 55 55 54 53 53 52 51 51 50 52 53 54 54 55 54 53 53 53 52 53 54 54 54 53 53 53
32 32 29 25 33 30 32 37 35 38 46 49 46 51 55 54 54 55 55 54 53 52 51 50 51 52 52 54 53 51 51 51 52 52 52 53 53 53 53 53 53 53 53 53
30 32 36 30 30 28 36 41 37 36 45 51 52 53 53 53 54 54 54 52 50 49 50 51 52 51 49 50 50 51 50 51 51 52 52 53 53 53 53 54 54 54 54 54
35 34 35 32 36 38 41 43 39 38 38 52 53 54 54 55 54 53 53 51 50 50 51 51 51 50 50 49 50 50 50 52 51 52 52 53 53 53 53 53 54 54 55 55
38 41 36 38 34 31 38 42 41 41 38 48 55 55 53 54 49 50 53 50 50 50 50 51 51 50 50 50 49 49 51 52 52 52 52 54 54 54 55 55 55 55 55 56
37 36 34 37 36 38 41 43 42 32 35 47 49 55 54 52 50 49 49 49 49 49 49 49 49 48 48 51 51 50 51 51 52 52 54 54 55 55 55 55 56 56 57 56
38 36 35 37 35 32 43 41 36 40 44 49 50 51 49 49 48 47 47 48 48 48 48 48 48 48 49 52 50 49 50 51 52 53 55 55 55 55 56 56 56 55 56 55
38 37 39 37 38 45 45 43 43 43 40 46 49 49 48 46 45 46 46 47 46 44 44 44 44 44 46 51 51 50 50 52 54 54 54 54 54 54 55 55 55 55 54 55
43 46 39 39 43 44 43 42 43 43 41 43 50 50 48 47 47 47 47 46 46 45 44 43 43 45 46 48 49 50 52 53 53 53 52 52 53 53 53 52 51 51 51 53
40 44 42 40 43 42 44 43 43 43 42 40 43 47 49 50 49 48 47 47 47 47 47 47 46 46 46 46 49 50 51 53 53 53 53 52 52 52 52 50 50 50 50 50
43 39 36 37 42 40 43 45 45 43 44 44 43 43 48 50 49 49 48 48 48 48 47 46 45 45 45 45 48 52 53 53 53 53 52 52 52 51 50 51 51 51 50 48
Lifted_Index
-0 -0 -1 -1 -1 -1 -2 -2 -2 -2 -2 -1 -1 -1 -1 -0 0 1 1 1 0 -1 -1 -1 -1 -1 -2 -2 -1 -1 -1 -1 -2 -2 -3 -3 -3 -3 -3 -3 -3 -3 -3 -3
-0 -0 -1 -1 -2 -2 -2 -2 -2 -3 -2 -1 -1 -0 -0 0 1 1 1 1 0 -0 -1 -1 -1 -1 -2 -2 -2 -1 -1 -2 -2 -2 -3 -3 -3 -3 -3 -3 -3 -3 -3 -3
-1 -1 -1 -2 -2 -2 -2 -2 -2 -3 -2 -2 -1 0 0 0 1 1 1 1 0 -0 -1 -1 -1 -1 -1 -2 -2 -1 -2 -2 -2 -2 -3 -3 -3 -3 -3 -3 -3 -3 -3 -3
-1 -1 -1 -2 -2 -2 -2 -2 -3 -3 -2 -1 -0 0 0 0 1 1 0 0 -0 -0 -1 -1 -1 -1 -1 -2 -2 -2 -2 -2 -2 -2 -3 -3 -3 -3 -3 -3 -2 -2 -2 -3
-0 -0 -0 -1 -2 -2 -2 -2 -3 -3 -2 -1 -1 -1 -0 -0 0 0 0 -0 0 -0 -1 -1 -1 -2 -2 -2 -2 -2 -2 -2 -2 -3 -3 -3 -3 -3 -3 -2 -2 -2 -2 -2
0 1 1 0 -0 -1 -1 -2 -2 -2 -2 -1 -1 -1 -1 -0 -0 0 0 0 0 0 -1 -1 -1 -2 -2 -2 -3 -3 -3 -3 -3 -3 -3 -3 -3 -3 -3 -2 -2 -2 -2 -2
2 1 1 2 1 0 -1 -1 -1 -1 -1 -1 -2 -2 -1 -1 -1 -1 -0 -0 0 0 -1 -1 -1 -2 -2 -3 -3 -4 -3 -3 -3 -3 -3 -3 -3 -2 -2 -2 -2 -2 -1 -1
3 2 2 2 2 1 -0 -0 -0 -1 -1 -1 -2 -2 -2 -2 -1 -2 -1 -1 -0 -0 -1 -1 -1 -1 -2 -3 -3 -4 -3 -3 -2 -3 -3 -2 -2 -2 -2 -1 -1 -0 0 1
3 3 2 2 2 1 1 0 -0 -0 -0 -1 -2 -3 -3 -2 -2 -2 -2 -2 -1 -1 -1 -1 -1 -1 -2 -3 -3 -4 -3 -3 -2 -3 -3 -2 -2 -2 -1 0 1 2 2 3
2 2 2 2 1 1 1 0 -0 -0 -0 -1 -2 -3 -3 -3 -3 -3 -3 -2 -2 -2 -2 -2 -2 -2 -2 -3 -3 -3 -3 -3 -3 -2 -2 -2 -2 -1 0 2 3 4 5 5
2 2 2 1 1 0 0 -0 -0 -1 -1 -0 -1 -3 -4 -3 -3 -3 -3 -3 -3 -3 -3 -3 -3 -2 -3 -3 -3 -3 -3 -3 -2 -2 -2 -2 -1 0 1 3 4 6 7 7
1 1 1 1 1 0 0 -0 -0 -0 -0 -0 -1 -3 -4 -3 -2 -2 -2 -2 -3 -3 -4 -4 -3 -3 -3 -3 -3 -3 -3 -2 -2 -1 -0 0 1 2 3 4 5 6 7 8
2 1 1 0 0 0 0 0 -0 -0 -0 -0 -1 -3 -4 -3 -2 -2 -1 -1 -2 -3 -4 -4 -4 -3 -3 -2 -2 -2 -1 -1 -0 0 1 2 2 3 4 5 6 7 7 8
2 1 1 0 0 1 1 1 0 -0 -0 -1 -2 -3 -4 -3 -2 -2 -1 -1 -3 -4 -4 -4 -4 -3 -3 -2 -2 -1 0 1 2 2 2 2 3 4 5 6 7 7 8 8
2 2 1 1 1 1 1 1 0 -0 -1 -2 -3 -4 -3 -3 -2 -2 -2 -3 -3 -4 -4 -4 -3 -3 -2 -1 -1 1 2 3 4 3 3 3 4 5 6 6 6 7 7 7
3 2 2 1 1 1 1 1 0 -1 -2 -3 -4 -4 -3 -3 -2 -2 -3 -3 -4 -3 -3 -2 -2 -1 -0 1 2 3 4 5 4 4 4 4 5 5 5 5 6 6 6 7
2 2 1 1 1 1 1 1 0 -1 -3 -4 -3 -3 -3 -3 -2 -2 -3 -3 -3 -2 -1 -0 1 2 2 3 4 5 5 5 4 4 4 4 4 4 4 5 5 5 5 5
2 1 1 0 0 0 1 1 0 -1 -2 -3 -3 -3 -3 -3 -2 -2 -2 -1 -1 0 1 2 2 3 4 4 4 5 4 4 4 3 3 3 3 3 4 4 4 4 4 4
1 1 -0 -0 -0 -0 -0 0 0 -0 -1 -3 -3 -3 -3 -2 -2 -1 -0 0 1 2 2 2 3 3 3 4 4 4 4 3 3 3 3 3 3 3 3 3 3 3 3 3
1 0 -0 -1 -1 -1 -0 -0 0 0 -0 -2 -3 -3 -3 -2 -1 -1 -0 0 1 2 2 2 3 3 3 3 4 4 3 3 2 2 2 2 2 2 2 2 2 3 3 3
1 0 -0 -1 -1 -1 -0 -0 0 0 -0 -1 -2 -3 -3 -2 -1 -0 -0 0 1 2 2 3 3 3 3 3 3 3 3 2 2 2 2 1 1 1 2 2 2 2 2 2
0 0 -0 -0 -1 -0 -0 -0 -0 0 -0 -1 -1 -2 -2 -1 -0 0 0 0 1 1 2 3 3 3 3 3 2 2 2 2 1 1 1 1 1 1 1 1 2 2 2 2
0 0 0 -0 -0 -0 -0 -0 -0 0 0 -0 -0 -1 -0 0 0 0 0 0 0 1 2 3 4 4 3 3 2 2 2 1 0 -0 -1 -0 0 1 1 1 1 2 2 2
1 0 0 0 0 -0 -0 -0 0 1 1 1 0 0 0 1 0 0 -0 0 0 1 2 3 3 4 3 3 2 2 1 -0 -1 -2 -2 -1 -0 0 1 1 1 2 2 2
1 0 0 0 0 0 -0 0 1 1 1 1 1 1 1 0 0 0 -0 0 0 1 2 3 3 3 3 3 2 1 0 -1 -1 -2 -2 -2 -1 -0 0 1 1 1 2 2
0 0 0 0 0 0 0 0 1 1 2 2 1 1 1 1 0 0 -0 0 1 1 2 2 3 3 3 3 2 1 0 -0 -1 -1 -2 -2 -2 -1 -0 0 0 1 1 1